Home > Weather > Gothenburg > Past weeks

Flag for Sweden Past Weather in Gothenburg, Sweden — Yesterday and Last 2 Weeks

Now
68 °F

Sunny.


Feels Like: 68 °F
Forecast: 59 / 72 °F
Wind: 9 mph from South

Location: Gothenburg / Save

Current Time: Aug 25, 2016 at 10:12:33 AM

Latest Report: Aug 25, 2016 at 9:50 AM


Visibility: 10 mi

Pressure: 30.12 "Hg

Humidity: 78%

Dew Point: 61 °F

Location of GothenburgLocation

Past Weather in Gothenburg — Graph

°F

Gothenburg Temperature Yesterday

Maximum temperature yesterday: 70 °F (at 2:20 PM)
Minimum temperature yesterday: 55 °F (at 12:20 AM)
Average temperature yesterday: 63 °F

High & Low Weather Summary for the Past Weeks

 TemperatureHumidityPressure
High72 °F (Aug 17, 2:20 PM)100% (Aug 11, 5:20 AM)30.30 "Hg (Aug 11, 5:20 AM)
Low41 °F (Aug 11, 4:50 AM)40% (Aug 15, 1:50 PM)29.65 "Hg (Aug 10, 8:20 AM)
Average59 °F82%29.98 "Hg
* Reported Aug 10 8:20 AM — Aug 25 8:50 AM, Gothenburg, Weather by CustomWeather, © 2016

Note: Actual official high and low records may vary slightly from our data, if they occured in-between our weather recording intervals... More about our weather records

Advertising

Gothenburg Weather History for the Previous 24 Hours

Scroll right to see more
 ConditionsComfort  
Time TempWeatherWind HumidityBarometerVisibility
8:50 AM
Thu, Aug 25
66 °FSunny.10 mph83%30.12 "Hg10 mi
8:20 AM64 °FSunny.8 mph88%30.12 "Hg10 mi
7:50 AM64 °FSunny.8 mph83%30.12 "Hg10 mi
7:20 AM63 °FPassing clouds.6 mph88%30.12 "HgN/A
6:50 AM63 °FPassing clouds.7 mph88%30.12 "HgN/A
6:20 AM63 °FOvercast.5 mph88%30.15 "HgN/A
5:50 AM63 °FPassing clouds.7 mph88%30.15 "HgN/A
5:20 AM63 °FPassing clouds.6 mph88%30.15 "HgN/A
4:50 AM61 °FPassing clouds.7 mph94%30.15 "HgN/A
4:20 AM63 °FMild.8 mph88%30.15 "HgN/A
3:50 AM63 °FPassing clouds.7 mph88%30.15 "HgN/A
3:20 AM63 °FMild.6 mph88%30.18 "HgN/A
2:50 AM63 °FMild.8 mph88%30.18 "HgN/A
2:20 AM63 °FMild.9 mph88%30.18 "HgN/A
1:50 AM63 °FMild.7 mph83%30.18 "HgN/A
1:20 AM61 °FCool.7 mph88%30.18 "HgN/A
12:50 AM63 °FMild.7 mph83%30.18 "HgN/A
12:20 AM61 °FCool.6 mph88%30.18 "HgN/A
11:50 PM
Wed, Aug 24
57 °FFog.2 mph94%30.18 "Hg5 mi
11:20 PM59 °FCool.2 mph88%30.21 "HgN/A
10:50 PM61 °FCool.2 mph88%30.21 "HgN/A
10:20 PM61 °FCool.2 mph88%30.21 "HgN/A
9:50 PM61 °FClear.2 mph83%30.21 "Hg10 mi
9:20 PM63 °FSunny.2 mph83%30.21 "Hg10 mi
8:50 PM63 °FSunny.2 mph83%30.21 "Hg10 mi
8:20 PM66 °FSunny.3 mph73%30.21 "Hg10 mi
7:50 PM66 °FSunny.5 mph73%30.21 "Hg10 mi
7:20 PM66 °FSunny.9 mph78%30.21 "Hg10 mi
6:50 PM66 °FSunny.9 mph78%30.24 "Hg10 mi
6:20 PM66 °FSunny.12 mph73%30.24 "Hg10 mi
5:50 PM68 °FSunny.13 mph73%30.24 "Hg10 mi
5:20 PM68 °FSunny.14 mph69%30.24 "Hg10 mi
4:50 PM68 °FSunny.14 mph69%30.24 "Hg10 mi
4:20 PM68 °FPassing clouds.13 mph73%30.24 "HgN/A
3:50 PM68 °FPassing clouds.12 mph73%30.27 "HgN/A
3:20 PM70 °FPassing clouds.14 mph73%30.27 "HgN/A
2:50 PM68 °FOvercast.12 mph73%30.27 "HgN/A
2:20 PM70 °FPartly sunny.12 mph73%30.27 "HgN/A
1:50 PM68 °FScattered clouds.12 mph78%30.27 "HgN/A
1:20 PM68 °FPartly sunny.10 mph78%30.27 "HgN/A
12:50 PM66 °FBroken clouds.12 mph78%30.27 "HgN/A
12:20 PM66 °FMore clouds than sun.8 mph78%30.30 "HgN/A
11:50 AM66 °FMore clouds than sun.5 mph78%30.30 "HgN/A
11:20 AM64 °FOvercast.7 mph83%30.30 "HgN/A
10:50 AM64 °FPartly sunny.6 mph78%30.30 "HgN/A
10:20 AM64 °FPartly sunny.7 mph78%30.30 "HgN/A
Weather by CustomWeather, © 2016

See weather overviewHow to use our weather pages